Torna al catalogo

START 1

AttivoMilitareLEO
NORAD 22561·PAYLOAD·🇷🇺 Russia

Lanciato Mar 25, 1993 da Plesetsk Cosmodrome

Loading…

Prossimi Passaggi (prossime 24 ore)

TLE

AggiornatoSource: Space-Track

Epoca: Sep 14, 2026, 09:03 UTC

1 22561U 93014A   26257.37734309  .00000095  00000-0  40980-4 0  9990
2 22561  75.7595 233.2376 0193123 332.3108  26.7863 14.22606944736546

Traccia START 1 in tempo reale con AllMySat

Download on the App Store